FENGYUN 1C DEB

Satellite information

Favourite Embed

Satellite Type and Status

DEBRISIN ORBIT

Key statistics

Satellite FENGYUN 1C DEB at a glance.

Uptime

9616

Days in orbit

Revolutions

≈ 14.1

Per day

Orbit

SSO

Sun Synchronous Orbit

Inclination

99.2

Latest

Satellite identification and parameters

Extended collection of information and parameters for FENGYUN 1C DEB.

Object identification

Identified? True

Debris? True

Object name: FENGYUN 1C DEB

International designator: 1999-025BVN

Object number (NORAD): 31474

Object ID (CCSDS): 31474

Country: PEOPLES REPUBLIC OF CHINA (PRC)

Current information (Y/N): Y

RCS size: SMALL

Orbital parameters

Period: 102.129 minutes

Inclination: 99.1504 deg

SMA: 7237.592 km

Apoapsis: 912.204 km

Periapsis: 806.71 km

RAAN: 293.0457 deg

Eccentricy: 0.0072879

Argument of periapsis: 121.3001 deg

Mean anomaly: 239.5331 deg

Mean motion: 14.09975571 rev/day

Mean motion (dot): 0.00003236 rev/day2

B* drag term: 0.0018151805 1/REarth

Two-line elements (TLE)

Creation date: Sept. 6, 2025, 2:09 a.m.

Reference frame: TEME

Reference center: EARTH

Epoch: Sept. 5, 2025, 8:10 p.m. UTC

TLE line 0: 0 FENGYUN 1C DEB

TLE line 1: 1 31474U 99025BVN 25248.84080952 .00003236 00000-0 18152-2 0 9994

TLE line 2: 2 31474 99.1504 293.0457 0072879 121.3001 239.5331 14.09975571935900

Live tracking on map

Real-time ground track for satellite FENGYUN 1C DEB.

In-orbit conjunctions

A list of the most updated potential collisions computed for object FENGYUN 1C DEB.

Target Orbit TCA Probability of collision Miss distance Type
FENGYUN 1C DEB SSO 2024-11-14 04:52:16 0.0001365113 781.0 (m) DEBRIS
CZ-6A DEB LEO 2024-11-10 23:02:57 0.0002607937 336.0 (m) DEBRIS

Associated space launch

Chinese polar orbiting meteorological satellite

FENGYUN 1C DEB was lifted into orbit during the mission ‘Long March 4B | Feng Yun 1C’, on board a Long March 4B space rocket.

The launch took place on May 10, 1999, 1:33 a.m. from Launch Complex 7.

For more information about the launch, click the button.

Launch to space Long March 4B | Feng Yun 1C
Long March 4B | Feng Yun 1C

Agency: N/A

Status: Launch Successful

Launch date: May 10, 1999, 1:33 a.m. UTC

Rocket: Long March 4B

Launch pad: Launch Complex 7

Location: Taiyuan Satellite Launch Center, People's Republic of China

...

Latest news about this satellite

There are no fresh news available about this satellite. Check back as we update our databases every day.


Newsletter sign-up

Weekly statistics, charts and insights to help you stay on top of the space industry.